Simultaneous Nadir Overpasses (SNOs) Predictions

Prediction of SNOs between FY3D and NOAA-19 Satellite Orbit:

Table of predicted SNOs for the next 14.0 days since TLE Epoch: 8/24/2024
Index Date (FY3D) Time (FY3D) Lat,Lon (FY3D) SZA (FY3D ) Date (NOAA-19) Time (NOAA-19) Lat,Lon (NOAA-19) SZA (NOAA-19 ) Distance(km) Time Diff (sec)
1 09/04/2024 13:19:55 75.74, -18.31 68.80 09/04/2024 13:18:45 75.72, -20.20 68.78 51.99 70
2 09/04/2024 14:10:46 -76.04, 147.97 110.90 09/04/2024 14:09:41 -76.02, 148.09 110.91 3.55 65
3 09/04/2024 15:01:32 76.04, -44.71 69.12 09/04/2024 15:00:36 76.02, -44.64 69.11 2.18 56
4 09/04/2024 15:52:16 -76.02, 122.67 110.89 09/04/2024 15:51:39 -76.01, 122.55 110.90 3.48 37
5 09/04/2024 16:43:03 76.06, -70.17 69.17 09/04/2024 16:42:33 76.05, -70.03 69.16 3.88 30
6 09/04/2024 17:33:47 -76.04, 97.21 110.84 09/04/2024 17:33:36 -76.04, 97.16 110.85 1.38 11
7 09/04/2024 18:24:33 76.04, -95.47 69.17 09/04/2024 18:24:31 76.04, -95.57 69.17 2.85 2
8 09/04/2024 19:15:18 -76.06, 71.75 110.79 09/04/2024 19:15:33 -76.07, 71.78 110.79 0.72 15
9 09/04/2024 20:06:04 76.06,-120.93 69.22 09/04/2024 20:06:28 76.06,-120.96 69.23 0.88 24
10 09/04/2024 20:56:49 -76.09, 46.29 110.74 09/04/2024 20:57:30 -76.10, 46.39 110.73 2.84 41
11 09/04/2024 21:47:35 76.09,-146.39 69.27 09/04/2024 21:48:25 76.09,-146.34 69.28 1.40 50
12 09/04/2024 22:38:20 -76.11, 20.83 110.69 09/04/2024 22:39:28 -76.08, 20.85 110.72 3.60 68
13 09/04/2024 23:29:08 76.20,-172.18 69.41 09/04/2024 23:30:21 76.17,-171.57 69.38 16.66 73



Historial Predications of SNOs between FY3D and NOAA-19
